When you browse on this site, cookies collect data to enhance your experience and personalize the content and advertising you see.
Visit our Privacy Policy to learn more. By continuing to use the site, you agree to this use of cookies and data.
  • In Portugal
  • List of Countries
  • For 7 days
  • Water Temperature
  • Satellite Maps
  • Weather Map
  • Weather Widgets
  • user-avatar
    Login

    Hourly Weather Shiraz

    Today, 24 March, Sunday

    Time Temperature Precipitation Wind Pressure Humidity
    00:00 +13°C° 0 mm 1 mps 635 mmHg 49%
    01:00 +13°C° 0 mm 1 mps 635 mmHg 52%
    02:00 +11°C° 0 mm 0 mps 634 mmHg 54%
    03:00 +11°C° 0 mm 0 mps 634 mmHg 56%
    04:00 +10°C° 0 mm 0 mps 634 mmHg 63%
    05:00 +10°C° 0 mm 0 mps 634 mmHg 65%
    06:00 +10°C° 0 mm 0 mps 634 mmHg 66%
    07:00 +10°C° 0 mm 0 mps 634 mmHg 67%
    08:00 +11°C° 0 mm 0 mps 634 mmHg 61%
    09:00 +14°C° 0 mm 1 mps 635 mmHg 55%
    10:00 +16°C° 0 mm 1 mps 635 mmHg 48%
    11:00 +17°C° 0.1 mm 2 mps 635 mmHg 44%
    12:00 +18°C° 0.1 mm 3 mps 636 mmHg 40%
    13:00 +20°C° 0.1 mm 4 mps 636 mmHg 35%
    14:00 +20°C° 0 mm 5 mps 635 mmHg 34%
    15:00 +20°C° 0 mm 6 mps 635 mmHg 32%
    16:00 +20°C° 0 mm 5 mps 634 mmHg 31%
    17:00 +19°C° 0 mm 4 mps 634 mmHg 36%
    18:00 +18°C° 0 mm 3 mps 634 mmHg 41%
    19:00 +17°C° 0 mm 2 mps 633 mmHg 46%
    20:00 +17°C° 0 mm 2 mps 633 mmHg 49%
    21:00 +16°C° 0 mm 2 mps 634 mmHg 51%
    22:00 +16°C° 0 mm 2 mps 634 mmHg 54%
    23:00 +15°C° 0 mm 2 mps 634 mmHg 57%

    Tomorrow, 25 March, Monday

    Time Temperature Precipitation Wind Pressure Humidity
    00:00 +15°C° 0 mm 2 mps 634 mmHg 60%
    01:00 +15°C° 0 mm 2 mps 634 mmHg 63%
    02:00 +15°C° 0 mm 2 mps 634 mmHg 67%
    03:00 +15°C° 0 mm 2 mps 633 mmHg 70%
    04:00 +14°C° 0 mm 2 mps 633 mmHg 74%
    05:00 +14°C° 0 mm 2 mps 633 mmHg 76%
    06:00 +14°C° 0 mm 2 mps 633 mmHg 77%
    07:00 +13°C° 0 mm 3 mps 633 mmHg 79%
    08:00 +14°C° 0.1 mm 4 mps 634 mmHg 70%
    09:00 +15°C° 0.1 mm 5 mps 634 mmHg 61%
    10:00 +17°C° 0.1 mm 6 mps 635 mmHg 53%
    11:00 +16°C° 1.2 mm 5 mps 635 mmHg 62%
    12:00 +15°C° 1.2 mm 5 mps 635 mmHg 70%
    13:00 +15°C° 1.2 mm 5 mps 635 mmHg 79%
    14:00 +15°C° 0.6 mm 5 mps 634 mmHg 78%
    15:00 +15°C° 0.6 mm 6 mps 634 mmHg 77%
    16:00 +15°C° 0.6 mm 6 mps 634 mmHg 77%
    17:00 +15°C° 1.4 mm 5 mps 634 mmHg 80%
    18:00 +14°C° 1.4 mm 5 mps 633 mmHg 84%
    19:00 +14°C° 1.4 mm 4 mps 633 mmHg 87%
    20:00 +14°C° 3.4 mm 3 mps 633 mmHg 89%
    21:00 +14°C° 3.4 mm 3 mps 633 mmHg 90%
    22:00 +13°C° 3.4 mm 3 mps 634 mmHg 92%
    23:00 +13°C° 3.1 mm 3 mps 634 mmHg 92%

    Day after tomorrow, 26 March, Tuesday

    Time Temperature Precipitation Wind Pressure Humidity
    00:00 +13°C° 3.1 mm 3 mps 634 mmHg 92%
    01:00 +14°C° 3.1 mm 2 mps 634 mmHg 91%
    02:00 +13°C° 2.6 mm 3 mps 634 mmHg 91%
    03:00 +13°C° 2.6 mm 4 mps 634 mmHg 91%
    04:00 +13°C° 2.6 mm 5 mps 634 mmHg 91%
    05:00 +13°C° 1.3 mm 5 mps 634 mmHg 90%
    06:00 +12°C° 1.3 mm 5 mps 634 mmHg 89%
    07:00 +12°C° 1.3 mm 5 mps 634 mmHg 88%
    08:00 +12°C° 1.3 mm 5 mps 634 mmHg 88%
    09:00 +12°C° 1.3 mm 4 mps 635 mmHg 87%
    10:00 +13°C° 1.3 mm 4 mps 635 mmHg 87%
    11:00 +13°C° 2.2 mm 4 mps 635 mmHg 87%
    12:00 +13°C° 2.2 mm 4 mps 635 mmHg 87%
    13:00 +13°C° 2.2 mm 4 mps 635 mmHg 86%
    14:00 +13°C° 2.7 mm 4 mps 635 mmHg 87%
    15:00 +13°C° 2.7 mm 4 mps 634 mmHg 87%
    16:00 +13°C° 2.7 mm 4 mps 634 mmHg 88%
    17:00 +12°C° 0.2 mm 4 mps 634 mmHg 87%
    18:00 +12°C° 0.2 mm 4 mps 634 mmHg 86%
    19:00 +12°C° 0.2 mm 4 mps 634 mmHg 86%
    20:00 +12°C° 0.4 mm 3 mps 635 mmHg 87%
    21:00 +11°C° 0.4 mm 3 mps 635 mmHg 89%
    22:00 +11°C° 0.4 mm 3 mps 635 mmHg 90%
    23:00 +12°C° 0.2 mm 2 mps 635 mmHg 89%

    27 March, Wednesday

    Time Temperature Precipitation Wind Pressure Humidity
    00:00 +10°C° 0.2 mm 2 mps 635 mmHg 87%
    01:00 +10°C° 0.2 mm 2 mps 635 mmHg 86%
    02:00 +11°C° 0 mm 1 mps 635 mmHg 87%
    03:00 +10°C° 0 mm 1 mps 635 mmHg 87%
    04:00 +10°C° 0 mm 1 mps 635 mmHg 88%
    05:00 +9°C° 0 mm 1 mps 635 mmHg 87%
    06:00 +9°C° 0 mm 1 mps 635 mmHg 86%
    07:00 +9°C° 0 mm 1 mps 635 mmHg 85%
    08:00 +11°C° 0 mm 1 mps 636 mmHg 73%
    09:00 +13°C° 0 mm 2 mps 637 mmHg 60%
    10:00 +15°C° 0 mm 2 mps 638 mmHg 47%
    11:00 +16°C° 0 mm 3 mps 638 mmHg 40%
    12:00 +17°C° 0 mm 4 mps 638 mmHg 33%
    13:00 +17°C° 0 mm 5 mps 638 mmHg 26%
    14:00 +17°C° 0 mm 5 mps 638 mmHg 27%
    15:00 +17°C° 0 mm 6 mps 637 mmHg 28%
    16:00 +17°C° 0 mm 6 mps 637 mmHg 29%
    17:00 +16°C° 0 mm 5 mps 637 mmHg 34%
    18:00 +15°C° 0 mm 4 mps 637 mmHg 39%
    19:00 +15°C° 0 mm 2 mps 637 mmHg 44%
    20:00 +14°C° 0 mm 2 mps 637 mmHg 46%
    21:00 +13°C° 0 mm 2 mps 637 mmHg 48%
    22:00 +13°C° 0 mm 1 mps 637 mmHg 50%
    23:00 +12°C° 0 mm 1 mps 637 mmHg 50%

    28 March, Thursday

    Time Temperature Precipitation Wind Pressure Humidity
    00:00 +12°C° 0 mm 1 mps 637 mmHg 50%
    01:00 +11°C° 0 mm 1 mps 636 mmHg 51%
    02:00 +11°C° 0 mm 1 mps 636 mmHg 51%
    03:00 +10°C° 0 mm 1 mps 636 mmHg 51%
    04:00 +10°C° 0 mm 1 mps 635 mmHg 51%
    05:00 +9°C° 0 mm 0 mps 635 mmHg 52%
    06:00 +9°C° 0 mm 0 mps 635 mmHg 54%
    07:00 +9°C° 0 mm 0 mps 636 mmHg 55%
    08:00 +11°C° 0 mm 0 mps 636 mmHg 47%
    09:00 +14°C° 0 mm 1 mps 637 mmHg 39%
    10:00 +16°C° 0 mm 1 mps 638 mmHg 32%
    11:00 +16°C° 0 mm 2 mps 638 mmHg 34%
    12:00 +17°C° 0 mm 3 mps 637 mmHg 36%
    13:00 +17°C° 0 mm 5 mps 637 mmHg 38%
    14:00 +17°C° 0.1 mm 6 mps 637 mmHg 39%
    15:00 +17°C° 0.1 mm 7 mps 636 mmHg 39%
    16:00 +17°C° 0.1 mm 8 mps 636 mmHg 40%
    17:00 +16°C° 0 mm 6 mps 636 mmHg 43%
    18:00 +14°C° 0 mm 5 mps 635 mmHg 46%
    19:00 +13°C° 0 mm 3 mps 635 mmHg 49%
    20:00 +13°C° 0 mm 2 mps 635 mmHg 51%
    21:00 +13°C° 0 mm 2 mps 635 mmHg 53%
    22:00 +12°C° 0 mm 2 mps 635 mmHg 55%
    23:00 +10°C° 0 mm 2 mps 635 mmHg 57%

    29 March, Friday

    Time Temperature Precipitation Wind Pressure Humidity
    00:00 +10°C° 0 mm 2 mps 635 mmHg 58%
    01:00 +9°C° 0 mm 2 mps 634 mmHg 60%
    02:00 +9°C° 0 mm 2 mps 634 mmHg 62%
    03:00 +9°C° 0 mm 1 mps 634 mmHg 63%
    04:00 +9°C° 0 mm 1 mps 634 mmHg 65%
    05:00 +9°C° 0 mm 1 mps 634 mmHg 66%
    06:00 +9°C° 0 mm 1 mps 635 mmHg 67%
    07:00 +9°C° 0 mm 1 mps 635 mmHg 68%
    08:00 +10°C° 0 mm 1 mps 636 mmHg 59%
    09:00 +11°C° 0 mm 1 mps 636 mmHg 51%
    10:00 +13°C° 0 mm 1 mps 637 mmHg 43%
    11:00 +14°C° 0 mm 1 mps 637 mmHg 38%
    12:00 +16°C° 0 mm 1 mps 637 mmHg 33%
    13:00 +18°C° 0 mm 1 mps 637 mmHg 27%
    14:00 +19°C° 0 mm 1 mps 637 mmHg 25%
    15:00 +18°C° 0 mm 2 mps 636 mmHg 24%
    16:00 +19°C° 0 mm 2 mps 636 mmHg 22%
    17:00 +18°C° 0 mm 2 mps 636 mmHg 26%
    18:00 +17°C° 0 mm 2 mps 636 mmHg 30%
    19:00 +16°C° 0 mm 2 mps 636 mmHg 35%
    20:00 +15°C° 0 mm 1 mps 636 mmHg 37%
    21:00 +14°C° 0 mm 1 mps 636 mmHg 40%
    22:00 +13°C° 0 mm 1 mps 636 mmHg 42%
    23:00 +13°C° 0 mm 1 mps 635 mmHg 44%
    Show more